Location: Cointrin
(46.2167°N, 6.1167°E)
Time: 15:33:35
(UTC+00:00)

ATLAS 5 CENTAUR R/B - Pass Details

Date: 08 February 2023
Orbit: 460 x 1178 km, 63.3° (Epoch: 19 March)

Event Time Altitude Azimuth Distance (km) Brightness Sun altitude
Rises 20:12:57 0° 324° (NW) 3,018 5.7 -35.2°
Reaches altitude 10° 20:15:13 10° 332° (NNW) 2,206 4.8 -35.6°
Enters shadow 20:16:20 17° 339° (NNW) 1,838 4.3 -35.8°
